Flag for Germany Weather past 2 weeks in Fürstenwalde/Spree, Brandenburg, Germany

Now
59 °F

Passing clouds.


Feels Like: 59 °F
Forecast: 50 / 72 °F
Wind: 2 mph from West

Location: Lindenberg

Current Time: Sep 2, 2015 at 9:45:40 PM

Latest Report: Sep 2, 2015 at 9:00 PM


Visibility: 31 mi

Pressure: 30.01 "Hg

Humidity: 68%

Dew point: 48 °F

Location of Fürstenwalde/SpreeLocation

Historic Weather in Fürstenwalde/Spree — Graph

°F

Fürstenwalde/Spree temperature yesterday

Maximum temperature yesterday: 87 °F (at 4:00 PM)
Minimum temperature yesterday: 61 °F (at 11:00 PM)
Average temperature yesterday: 75 °F

Past Weeks' High & Low Weather Summary

 TemperatureHumidityPressure
High95 °F (Aug 31, 4:00 PM)97% (Aug 19, 5:00 AM)30.31 "Hg (Aug 19, 5:00 AM)
Low53 °F (Aug 29, 7:00 AM)24% (Aug 19, 6:00 PM)29.67 "Hg (Sep 1, 6:00 PM)
Average69 °F60%30.01 "Hg
* Reported Aug 18 9:00 PM — Sep 2 9:00 PM, Fürstenwalde/Spree, Weather by CustomWeather, © 2015

Note: Actual official high and low records may vary slightly from our data, if they occured in-between our weather recording intervals... More about our weather records

Advertising

Fürstenwalde/Spree weather history for previous 24 hours

 ConditionsComfort  
Time TempWeatherWind HumidityBarometerVisibility
9:00 PM
Wed, Sep 2
59 °FPassing clouds.2 mph68%30.01 "Hg31 mi
8:00 PM63 °FPassing clouds.2 mph55%29.99 "Hg31 mi
7:00 PM66 °FPartly sunny.2 mph48%29.98 "Hg31 mi
6:00 PM67 °FPartly sunny.3 mph48%29.98 "Hg31 mi
4:00 PM67 °FScattered clouds.3 mph50%29.98 "Hg28 mi
3:00 PM67 °FScattered clouds.6 mph51%29.98 "Hg25 mi
2:00 PM67 °FScattered clouds.5 mph56%29.99 "Hg22 mi
1:00 PM64 °FScattered clouds.6 mph54%30.00 "Hg22 mi
12:00 PM61 °FScattered clouds.6 mph64%30.01 "Hg22 mi
11:00 AM61 °FScattered clouds.7 mph69%30.01 "Hg16 mi
10:00 AM60 °FPartly sunny.7 mph77%30.00 "Hg12 mi
9:00 AM57 °FPartly sunny.5 mph87%30.00 "Hg12 mi
8:00 AM56 °FLow clouds.5 mph92%30.00 "Hg9 mi
7:00 AM55 °FLow clouds.3 mph94%29.98 "Hg9 mi
6:00 AM57 °FPassing clouds.3 mph91%29.97 "Hg22 mi
5:00 AM57 °FPassing clouds.5 mph88%29.96 "Hg25 mi
4:00 AM58 °FOvercast.5 mph87%29.94 "Hg22 mi
3:00 AM59 °FOvercast.6 mph89%29.92 "Hg19 mi
2:00 AM59 °FOvercast.6 mph89%29.91 "Hg19 mi
1:00 AM60 °FOvercast.6 mph91%29.90 "Hg22 mi
11:00 PM
Tue, Sep 1
61 °FOvercast.6 mph93%29.85 "Hg22 mi
10:00 PM62 °FOvercast.6 mph93%29.83 "Hg19 mi
9:00 PM63 °FLight rain. Overcast.7 mph93%29.80 "Hg12 mi
Weather by CustomWeather, © 2015

See weather overviewHow to use our weather pages